| time (UTC) | temp C | wind direction | speed KPH | gust KPH | rain 1hr cm | rain 24hr cm | rain mn cm | humidity % | barometer mb |
| 20260505121820 | 14 | 70 | 0.0 | 0.0 | 0.18 | 0.13 | 0.13 | 95 | 1011.1 |
| 20260505121317 | 14 | 86 | 0.0 | 0.0 | 0.18 | 0.13 | 0.13 | 94 | 1011.2 |
| 20260505120813 | 15 | 13 | 1.6 | 1.6 | 0.00 | 0.10 | 0.10 | 94 | 1011.0 |
| 20260505120309 | 15 | 122 | 0.0 | 1.6 | 0.13 | 0.10 | 0.10 | 93 | 1011.1 |
| 20260505115808 | 15 | 92 | 0.0 | 1.6 | 0.30 | 0.10 | 0.10 | 93 | 1011.3 |
| 20260505115306 | 15 | 113 | 0.0 | 1.6 | 0.18 | 0.08 | 0.08 | 91 | 1011.1 |
| 20260505114803 | 15 | 72 | 0.0 | 1.6 | 0.00 | 0.05 | 0.05 | 92 | 1010.6 |
| 20260505114259 | 15 | 84 | 0.0 | 1.6 | 0.00 | 0.05 | 0.05 | 91 | 1011.1 |
| 20260505113756 | 15 | 81 | 0.0 | 1.6 | 0.00 | 0.05 | 0.05 | 90 | 1011.0 |
| 20260505113252 | 15 | 80 | 0.0 | 1.6 | 0.00 | 0.05 | 0.05 | 90 | 1010.8 |
| 20260505112748 | 15 | 2 | 0.0 | 3.2 | 0.00 | 0.05 | 0.05 | 89 | 1010.8 |
| 20260505112246 | 16 | 38 | 0.0 | 1.6 | 0.00 | 0.05 | 0.05 | 89 | 1010.5 |
| 20260505111746 | 16 | 8 | 1.6 | 3.2 | 0.00 | 0.05 | 0.05 | 85 | 1010.6 |
| 20260505111242 | 16 | 106 | 0.0 | 3.2 | 0.00 | 0.05 | 0.05 | 83 | 1010.0 |
| 20260505110738 | 16 | 129 | 0.0 | 1.6 | 0.00 | 0.05 | 0.05 | 83 | 1010.1 |
| 20260505110236 | 16 | 174 | 0.0 | 1.6 | 0.00 | 0.05 | 0.05 | 84 | 1009.7 |
| 20260505102212 | 15 | 131 | 0.0 | 1.6 | 0.00 | 0.05 | 0.05 | 90 | 1009.7 |
| 20260505101710 | 15 | 109 | 0.0 | 0.0 | 0.00 | 0.05 | 0.05 | 90 | 1009.8 |
| 20260505101206 | 15 | 127 | 0.0 | 1.6 | 0.00 | 0.05 | 0.05 | 92 | 1009.6 |
| 20260505100702 | 15 | 103 | 0.0 | 1.6 | 0.00 | 0.05 | 0.05 | 92 | 1009.7 |
| 20260505100159 | 15 | 116 | 0.0 | 0.0 | 0.00 | 0.05 | 0.05 | 92 | 1009.8 |
| 20260505095655 | 15 | 106 | 0.0 | 0.0 | 0.00 | 0.05 | 0.05 | 92 | 1009.8 |
| 20260505095153 | 15 | 108 | 0.0 | 1.6 | 0.00 | 0.05 | 0.05 | 93 | 1009.9 |
| 20260505094649 | 15 | 129 | 1.6 | 1.6 | 0.00 | 0.05 | 0.05 | 94 | 1009.7 |
| 20260505094145 | 15 | 95 | 0.0 | 1.6 | 0.00 | 0.05 | 0.05 | 94 | 1009.9 |
| 20260505093642 | 15 | 104 | 0.0 | 1.6 | 0.00 | 0.05 | 0.05 | 95 | 1010.1 |
| 20260505093139 | 15 | 105 | 0.0 | 0.0 | 0.00 | 0.05 | 0.05 | 95 | 1010.1 |
| 20260505092636 | 15 | 83 | 0.0 | 0.0 | 0.00 | 0.05 | 0.05 | 95 | 1010.2 |
| 20260505092135 | 15 | 84 | 0.0 | 1.6 | 0.00 | 0.05 | 0.05 | 95 | 1010.0 |
| 20260505091631 | 15 | 130 | 0.0 | 0.0 | 0.00 | 0.05 | 0.05 | 95 | 1010.1 |
| 20260505091129 | 15 | 96 | 0.0 | 0.0 | 0.00 | 0.05 | 0.05 | 95 | 1009.9 |
| 20260505090626 | 15 | 93 | 0.0 | 0.0 | 0.00 | 0.05 | 0.05 | 94 | 1009.8 |
| 20260505090124 | 15 | 93 | 0.0 | 0.0 | 0.00 | 0.05 | 0.05 | 94 | 1010.3 |
| 20260505085621 | 16 | 93 | 0.0 | 0.0 | 0.00 | 0.05 | 0.05 | 94 | 1010.1 |
| 20260505085120 | 16 | 96 | 0.0 | 0.0 | 0.00 | 0.05 | 0.05 | 93 | 1010.3 |
| 20260505084617 | 16 | 110 | 0.0 | 0.0 | 0.00 | 0.05 | 0.05 | 92 | 1010.4 |
| 20260505084115 | 16 | 99 | 0.0 | 0.0 | 0.13 | 0.05 | 0.05 | 91 | 1010.4 |
| 20260505083613 | 16 | 129 | 0.0 | 0.0 | 0.30 | 0.05 | 0.05 | 88 | 1010.7 |
| 20260505083109 | 17 | 100 | 0.0 | 0.0 | 0.18 | 0.03 | 0.03 | 83 | 1010.5 |
| 20260505082605 | 17 | 128 | 0.0 | 0.0 | 0.00 | 0.00 | 0.00 | 80 | 1010.6 |
| 20260505082102 | 18 | 262 | 0.0 | 0.0 | 0.00 | 0.00 | 0.00 | 74 | 1010.8 |
| 20260505081558 | 18 | 138 | 0.0 | 1.6 | 0.00 | 0.00 | 0.00 | 72 | 1010.7 |
| 20260505081055 | 18 | 247 | 1.6 | 1.6 | 0.00 | 0.00 | 0.00 | 72 | 1011.0 |
| 20260505080551 | 17 | 129 | 0.0 | 1.6 | 0.00 | 0.00 | 0.00 | 74 | 1011.0 |
| 20260505080049 | 17 | 339 | 3.2 | 3.2 | 0.00 | 0.00 | 0.00 | 75 | 1011.2 |
| 20260505075544 | 17 | 91 | 1.6 | 3.2 | 0.00 | 0.00 | 0.00 | 74 | 1011.2 |
| 20260505075041 | 18 | 106 | 0.0 | 3.2 | 0.00 | 0.00 | 0.00 | 71 | 1010.1 |
| 20260505074538 | 18 | 126 | 0.0 | 4.8 | 0.00 | 0.00 | 0.00 | 71 | 1009.6 |
| 20260505074036 | 18 | 156 | 3.2 | 4.8 | 0.00 | 0.00 | 0.00 | 71 | 1009.4 |
| 20260505073533 | 18 | 84 | 1.6 | 3.2 | 0.00 | 0.00 | 0.00 | 71 | 1009.6 |
| 20260505073032 | 18 | 209 | 1.6 | 3.2 | 0.00 | 0.00 | 0.00 | 71 | 1009.8 |
| 20260505072526 | 18 | 189 | 4.8 | 4.8 | 0.00 | 0.00 | 0.00 | 71 | 1009.8 |
| 20260505072023 | 18 | 179 | 1.6 | 3.2 | 0.00 | 0.00 | 0.00 | 71 | 1009.8 |
| 20260505071519 | 18 | 158 | 0.0 | 4.8 | 0.00 | 0.00 | 0.00 | 70 | 1009.7 |
| 20260505071017 | 18 | 239 | 3.2 | 3.2 | 0.00 | 0.00 | 0.00 | 70 | 1009.9 |
| 20260505070514 | 18 | 112 | 3.2 | 3.2 | 0.00 | 0.00 | 0.00 | 70 | 1009.8 |
| 20260505070010 | 18 | 123 | 1.6 | 3.2 | 0.00 | 0.00 | 0.00 | 70 | 1009.5 |
| 20260505065506 | 18 | 224 | 0.0 | 3.2 | 0.00 | 0.00 | 0.00 | 71 | 1009.7 |
| 20260505065003 | 18 | 131 | 3.2 | 3.2 | 0.00 | 0.00 | 0.00 | 70 | 1009.8 |
| 20260505064459 | 18 | 212 | 3.2 | 3.2 | 0.00 | 0.00 | 0.00 | 70 | 1009.8 |
| 20260505063958 | 18 | 228 | 0.0 | 3.2 | 0.00 | 0.00 | 0.00 | 70 | 1009.6 |
| 20260505063455 | 18 | 230 | 0.0 | 1.6 | 0.00 | 0.00 | 0.00 | 70 | 1009.8 |
| 20260505062951 | 18 | 135 | 0.0 | 1.6 | 0.00 | 0.00 | 0.00 | 70 | 1009.5 |
| 20260505062448 | 18 | 197 | 3.2 | 6.4 | 0.00 | 0.00 | 0.00 | 69 | 1009.6 |
| 20260505061944 | 18 | 135 | 3.2 | 3.2 | 0.00 | 0.00 | 0.00 | 68 | 1009.5 |
| 20260505061443 | 19 | 137 | 1.6 | 4.8 | 0.00 | 0.00 | 0.00 | 68 | 1009.4 |
| 20260505060940 | 19 | 130 | 1.6 | 4.8 | 0.00 | 0.00 | 0.00 | 67 | 1009.2 |
| 20260505060437 | 19 | 132 | 0.0 | 3.2 | 0.00 | 0.00 | 0.00 | 67 | 1009.2 |
| 20260505055933 | 19 | 192 | 1.6 | 9.7 | 0.00 | 0.00 | 0.00 | 66 | 1008.9 |
| 20260505055429 | 20 | 153 | 1.6 | 4.8 | 0.00 | 0.00 | 0.00 | 66 | 1009.1 |
| 20260505054926 | 20 | 109 | 3.2 | 4.8 | 0.00 | 0.00 | 0.00 | 67 | 1009.2 |
| 20260505054424 | 20 | 85 | 0.0 | 1.6 | 0.00 | 0.00 | 0.00 | 65 | 1009.2 |
| 20260505053921 | 20 | 257 | 3.2 | 6.4 | 0.00 | 0.00 | 0.00 | 65 | 1009.2 |
| 20260505053418 | 20 | 186 | 3.2 | 3.2 | 0.00 | 0.00 | 0.00 | 65 | 1009.1 |
| 20260505052915 | 20 | 249 | 1.6 | 4.8 | 0.00 | 0.00 | 0.00 | 65 | 1008.9 |
| 20260505052412 | 20 | 88 | 1.6 | 12.9 | 0.00 | 0.00 | 0.00 | 64 | 1008.9 |
| 20260505051909 | 20 | 213 | 3.2 | 9.7 | 0.00 | 0.00 | 0.00 | 65 | 1008.8 |
| 20260505051406 | 20 | 176 | 4.8 | 9.7 | 0.00 | 0.00 | 0.00 | 64 | 1008.7 |
| 20260505050904 | 20 | 139 | 0.0 | 11.3 | 0.00 | 0.00 | 0.00 | 65 | 1008.7 |
| 20260505050403 | 20 | 193 | 3.2 | 9.7 | 0.00 | 0.00 | 0.00 | 64 | 1008.6 |
| 20260505041330 | 20 | 221 | 1.6 | 4.8 | 0.00 | 0.03 | 0.03 | 62 | 1008.6 |
| 20260505040827 | 20 | 203 | 3.2 | 12.9 | 0.00 | 0.03 | 0.03 | 62 | 1008.8 |
| 20260505040319 | 20 | 203 | 0.0 | 4.8 | 0.00 | 0.03 | 0.03 | 62 | 1009.1 |
| 20260505035816 | 21 | 277 | 3.2 | 9.7 | 0.00 | 0.03 | 0.03 | 62 | 1009.1 |
| 20260505035311 | 21 | 123 | 3.2 | 9.7 | 0.00 | 0.03 | 0.03 | 61 | 1009.2 |
| 20260505034809 | 21 | 118 | 1.6 | 4.8 | 0.00 | 0.03 | 0.03 | 61 | 1009.3 |
| 20260505034305 | 21 | 237 | 0.0 | 4.8 | 0.00 | 0.03 | 0.03 | 62 | 1009.3 |
| 20260505033802 | 21 | 150 | 1.6 | 4.8 | 0.00 | 0.03 | 0.03 | 62 | 1009.3 |
| 20260505033259 | 21 | 161 | 3.2 | 4.8 | 0.00 | 0.03 | 0.03 | 61 | 1009.2 |
| 20260505032757 | 21 | 215 | 3.2 | 12.9 | 0.00 | 0.03 | 0.03 | 60 | 1009.2 |
| 20260505032253 | 21 | 149 | 1.6 | 4.8 | 0.00 | 0.03 | 0.03 | 61 | 1009.2 |
| 20260505031750 | 21 | 120 | 4.8 | 9.7 | 0.00 | 0.03 | 0.03 | 60 | 1009.1 |
| 20260505031246 | 21 | 232 | 3.2 | 3.2 | 0.00 | 0.03 | 0.03 | 60 | 1008.9 |
| 20260505030743 | 21 | 140 | 1.6 | 3.2 | 0.00 | 0.03 | 0.03 | 59 | 1009.2 |
| 20260505030240 | 21 | 178 | 1.6 | 6.4 | 0.00 | 0.03 | 0.03 | 59 | 1008.9 |
| 20260505025735 | 21 | 181 | 4.8 | 6.4 | 0.00 | 0.03 | 0.03 | 58 | 1008.8 |
| 20260505025234 | 21 | 119 | 3.2 | 6.4 | 0.00 | 0.03 | 0.03 | 58 | 1008.7 |
| 20260505024732 | 21 | 149 | 3.2 | 6.4 | 0.00 | 0.03 | 0.03 | 58 | 1008.6 |
| 20260505024229 | 21 | 181 | 6.4 | 9.7 | 0.00 | 0.03 | 0.03 | 57 | 1008.6 |
| 20260505023726 | 21 | 245 | 3.2 | 12.9 | 0.00 | 0.03 | 0.03 | 57 | 1008.3 |
| 20260505023223 | 21 | 95 | 1.6 | 9.7 | 0.00 | 0.03 | 0.03 | 58 | 1008.2 |
| 20260505022721 | 22 | 107 | 1.6 | 6.4 | 0.00 | 0.03 | 0.03 | 57 | 1008.3 |
| 20260505022217 | 22 | 35 | 1.6 | 3.2 | 0.00 | 0.03 | 0.03 | 56 | 1008.1 |
| 20260505021714 | 22 | 162 | 6.4 | 9.7 | 0.00 | 0.03 | 0.03 | 56 | 1008.0 |
| 20260505021211 | 22 | 128 | 3.2 | 3.2 | 0.00 | 0.03 | 0.03 | 56 | 1008.0 |
| 20260505020707 | 22 | 180 | 0.0 | 4.8 | 0.00 | 0.03 | 0.03 | 56 | 1008.0 |
| 20260505020202 | 22 | 45 | 3.2 | 14.5 | 0.00 | 0.03 | 0.03 | 55 | 1008.0 |
| 20260505015700 | 22 | 213 | 0.0 | 4.8 | 0.00 | 0.03 | 0.03 | 56 | 1007.8 |
| 20260505015151 | 22 | 56 | 4.8 | 11.3 | 0.00 | 0.03 | 0.03 | 54 | 1007.9 |
| 20260505014648 | 22 | 123 | 6.4 | 14.5 | 0.00 | 0.03 | 0.03 | 54 | 1007.9 |
| 20260505014145 | 22 | 187 | 4.8 | 6.4 | 0.00 | 0.03 | 0.03 | 55 | 1007.7 |
| 20260505013642 | 22 | 192 | 9.7 | 12.9 | 0.00 | 0.03 | 0.03 | 54 | 1007.8 |
| 20260505013139 | 22 | 198 | 3.2 | 9.7 | 0.00 | 0.03 | 0.03 | 54 | 1007.7 |
| 20260505012638 | 22 | 233 | 1.6 | 4.8 | 0.00 | 0.03 | 0.03 | 54 | 1007.6 |
| 20260505012134 | 22 | 127 | 1.6 | 11.3 | 0.00 | 0.03 | 0.03 | 54 | 1007.6 |
| 20260505011630 | 22 | 78 | 3.2 | 11.3 | 0.00 | 0.03 | 0.03 | 54 | 1007.4 |
| 20260505011127 | 22 | 165 | 4.8 | 12.9 | 0.00 | 0.03 | 0.03 | 54 | 1007.2 |
| 20260505010622 | 23 | 153 | 6.4 | 12.9 | 0.00 | 0.03 | 0.03 | 53 | 1007.5 |
| 20260505010119 | 22 | 130 | 6.4 | 9.7 | 0.00 | 0.03 | 0.03 | 53 | 1007.4 |
| 20260505005615 | 23 | 261 | 3.2 | 9.7 | 0.00 | 0.03 | 0.03 | 53 | 1007.3 |
| 20260505005112 | 23 | 215 | 3.2 | 12.9 | 0.00 | 0.03 | 0.03 | 53 | 1007.3 |
| 20260505004609 | 23 | 189 | 3.2 | 14.5 | 0.00 | 0.03 | 0.03 | 53 | 1007.2 |
| 20260505004106 | 23 | 215 | 4.8 | 9.7 | 0.00 | 0.03 | 0.03 | 53 | 1007.0 |
| 20260505003603 | 23 | 231 | 3.2 | 6.4 | 0.00 | 0.03 | 0.03 | 52 | 1007.2 |
| 20260505003101 | 23 | 275 | 3.2 | 9.7 | 0.00 | 0.03 | 0.03 | 53 | 1007.2 |
| 20260505002556 | 23 | 78 | 3.2 | 6.4 | 0.00 | 0.03 | 0.03 | 52 | 1007.2 |
| 20260505002055 | 23 | 148 | 1.6 | 6.4 | 0.00 | 0.03 | 0.03 | 51 | 1007.1 |
| 20260505001551 | 23 | 246 | 3.2 | 11.3 | 0.00 | 0.03 | 0.03 | 52 | 1007.3 |
| 20260505001048 | 24 | 172 | 3.2 | 16.1 | 0.00 | 0.03 | 0.03 | 50 | 1007.1 |
| 20260505000546 | 24 | 214 | 4.8 | 9.7 | 0.00 | 0.03 | 0.03 | 50 | 1007.0 |
| 20260505000044 | 24 | 148 | 4.8 | 16.1 | 0.00 | 0.03 | 0.03 | 51 | 1006.9 |
| 20260504235540 | 24 | 158 | 6.4 | 9.7 | 0.00 | 0.03 | 0.03 | 50 | 1007.1 |
| 20260504235038 | 24 | 239 | 1.6 | 9.7 | 0.00 | 0.03 | 0.03 | 52 | 1007.1 |
| 20260504234534 | 24 | 215 | 4.8 | 12.9 | 0.00 | 0.03 | 0.03 | 50 | 1007.1 |
| 20260504234031 | 25 | 232 | 4.8 | 6.4 | 0.00 | 0.03 | 0.03 | 49 | 1006.9 |
| 20260504233526 | 25 | 81 | 1.6 | 3.2 | 0.00 | 0.03 | 0.03 | 50 | 1007.1 |
| 20260504233023 | 25 | 103 | 3.2 | 9.7 | 0.13 | 0.03 | 0.03 | 48 | 1007.1 |
| 20260504232520 | 25 | 179 | 4.8 | 6.4 | 0.13 | 0.03 | 0.03 | 48 | 1007.3 |
| 20260504232018 | 25 | 114 | 6.4 | 14.5 | 0.00 | 0.00 | 0.00 | 48 | 1007.5 |
| 20260504231514 | 25 | 136 | 6.4 | 11.3 | 0.00 | 0.00 | 0.00 | 47 | 1007.5 |
| 20260504231010 | 25 | 197 | 3.2 | 6.4 | 0.00 | 0.00 | 0.00 | 46 | 1007.6 |
| 20260504230507 | 25 | 144 | 3.2 | 9.7 | 0.00 | 0.00 | 0.00 | 45 | 1007.7 |
| 20260504230006 | 25 | 108 | 3.2 | 4.8 | 0.00 | 0.00 | 0.00 | 47 | 1007.5 |
| 20260504225502 | 25 | 180 | 1.6 | 6.4 | 0.00 | 0.00 | 0.00 | 47 | 1007.5 |
| 20260504224959 | 25 | 176 | 3.2 | 11.3 | 0.00 | 0.00 | 0.00 | 46 | 1007.6 |
| 20260504224456 | 25 | 102 | 4.8 | 14.5 | 0.00 | 0.00 | 0.00 | 46 | 1007.7 |
| 20260504223953 | 25 | 166 | 9.7 | 14.5 | 0.00 | 0.00 | 0.00 | 47 | 1007.6 |
| 20260504223449 | 25 | 216 | 4.8 | 4.8 | 0.00 | 0.00 | 0.00 | 48 | 1007.6 |
| 20260504222945 | 25 | 138 | 3.2 | 9.7 | 0.00 | 0.00 | 0.00 | 47 | 1007.4 |
| 20260504222443 | 25 | 25 | 1.6 | 12.9 | 0.00 | 0.00 | 0.00 | 48 | 1007.4 |
| 20260504221940 | 25 | 201 | 4.8 | 14.5 | 0.00 | 0.00 | 0.00 | 49 | 1007.6 |
| 20260504221437 | 25 | 111 | 1.6 | 3.2 | 0.00 | 0.00 | 0.00 | 49 | 1007.5 |
| 20260504220934 | 25 | 199 | 1.6 | 3.2 | 0.00 | 0.00 | 0.00 | 49 | 1007.7 |
| 20260504220430 | 25 | 70 | 0.0 | 11.3 | 0.00 | 0.00 | 0.00 | 51 | 1007.7 |
| 20260504215928 | 25 | 152 | 6.4 | 11.3 | 0.00 | 0.00 | 0.00 | 47 | 1007.7 |
| 20260504215424 | 25 | 50 | 3.2 | 4.8 | 0.00 | 0.00 | 0.00 | 51 | 1007.8 |
| 20260504214921 | 25 | 72 | 3.2 | 12.9 | 0.00 | 0.00 | 0.00 | 49 | 1007.9 |
| 20260504214417 | 24 | 122 | 1.6 | 6.4 | 0.00 | 0.00 | 0.00 | 55 | 1007.8 |
| 20260504213914 | 23 | 156 | 4.8 | 9.7 | 0.00 | 0.00 | 0.00 | 54 | 1007.9 |
| 20260504213410 | 23 | 55 | 1.6 | 1.6 | 0.00 | 0.00 | 0.00 | 58 | 1008.0 |
| 20260504212908 | 23 | 118 | 1.6 | 12.9 | 0.00 | 0.00 | 0.00 | 56 | 1008.1 |
| 20260504212403 | 22 | 152 | 6.4 | 9.7 | 0.00 | 0.00 | 0.00 | 58 | 1008.2 |
| 20260504211901 | 22 | 138 | 1.6 | 3.2 | 0.00 | 0.00 | 0.00 | 59 | 1008.2 |
| 20260504211357 | 21 | 168 | 6.4 | 11.3 | 0.00 | 0.00 | 0.00 | 60 | 1008.0 |
| 20260504210855 | 20 | 189 | 3.2 | 3.2 | 0.00 | 0.00 | 0.00 | 69 | 1008.0 |
| 20260504210351 | 17 | 100 | 1.6 | 3.2 | 0.00 | 0.00 | 0.00 | 78 | 1008.1 |
| 20260504205848 | 16 | 114 | 1.6 | 4.8 | 0.00 | 0.00 | 0.00 | 88 | 1008.4 |
| 20260504205346 | 17 | 110 | 1.6 | 3.2 | 0.00 | 0.00 | 0.00 | 90 | 1008.5 |
| 20260504204844 | 17 | 133 | 0.0 | 3.2 | 0.00 | 0.00 | 0.00 | 85 | 1009.8 |
| 20260504204342 | 18 | 125 | 0.0 | 1.6 | 0.00 | 0.00 | 0.00 | 77 | 1010.4 |
| 20260504203842 | 19 | 58 | 0.0 | 1.6 | 0.00 | 0.00 | 0.00 | 72 | 1010.2 |
| 20260504203338 | 19 | 34 | 0.0 | 1.6 | 0.00 | 0.00 | 0.00 | 72 | 1010.2 |
| 20260504202833 | 20 | 74 | 0.0 | 0.0 | 0.00 | 0.00 | 0.00 | 73 | 1010.4 |
| 20260504202331 | 20 | 91 | 0.0 | 0.0 | 0.00 | 0.00 | 0.00 | 63 | 1010.2 |
| 20260504201827 | 20 | 67 | 0.0 | 1.6 | 0.00 | 0.00 | 0.00 | 63 | 1010.1 |
| 20260504201325 | 20 | 67 | 0.0 | 0.0 | 0.00 | 0.00 | 0.00 | 63 | 1010.2 |
| 20260504200822 | 21 | 76 | 0.0 | 0.0 | 0.00 | 0.00 | 0.00 | 61 | 1010.3 |
| 20260504200319 | 21 | 72 | 0.0 | 1.6 | 0.00 | 0.00 | 0.00 | 60 | 1010.2 |
| 20260504195815 | 22 | 76 | 0.0 | 0.0 | 0.00 | 0.00 | 0.00 | 55 | 1010.1 |
| 20260504195311 | 22 | 106 | 0.0 | 1.6 | 0.00 | 0.00 | 0.00 | 54 | 1010.1 |
| 20260504194808 | 23 | 118 | 0.0 | 1.6 | 0.00 | 0.00 | 0.00 | 57 | 1010.5 |
| 20260504194304 | 23 | 167 | 1.6 | 3.2 | 0.00 | 0.00 | 0.00 | 49 | 1010.2 |
| 20260504193800 | 22 | 84 | 0.0 | 6.4 | 0.00 | 0.00 | 0.00 | 52 | 1010.0 |
| 20260504193258 | 23 | 140 | 0.0 | 1.6 | 0.00 | 0.00 | 0.00 | 54 | 1010.0 |
| 20260504192756 | 23 | 90 | 0.0 | 1.6 | 0.00 | 0.00 | 0.00 | 51 | 1010.1 |
| 20260504192254 | 23 | 97 | 0.0 | 3.2 | 0.00 | 0.00 | 0.00 | 51 | 1009.7 |
| 20260504191752 | 23 | 95 | 1.6 | 9.7 | 0.00 | 0.00 | 0.00 | 55 | 1009.6 |
| 20260504191249 | 23 | 43 | 0.0 | 1.6 | 0.00 | 0.00 | 0.00 | 53 | 1009.8 |
| 20260504190744 | 23 | 66 | 1.6 | 4.8 | 0.00 | 0.00 | 0.00 | 51 | 1010.0 |
| 20260504190241 | 23 | 110 | 1.6 | 9.7 | 0.00 | 0.00 | 0.00 | 53 | 1009.7 |
| 20260504185737 | 23 | 110 | 0.0 | 4.8 | 0.00 | 0.00 | 0.00 | 54 | 1009.8 |
| 20260504185234 | 23 | 281 | 3.2 | 4.8 | 0.00 | 0.00 | 0.00 | 52 | 1010.0 |
| 20260504184730 | 23 | 176 | 3.2 | 11.3 | 0.00 | 0.00 | 0.00 | 51 | 1009.8 |
| 20260504184227 | 23 | 351 | 3.2 | 4.8 | 0.00 | 0.00 | 0.00 | 52 | 1009.7 |
| 20260504183722 | 23 | 225 | 3.2 | 4.8 | 0.00 | 0.00 | 0.00 | 53 | 1009.6 |
| 20260504183220 | 23 | 173 | 3.2 | 9.7 | 0.00 | 0.00 | 0.00 | 53 | 1009.5 |
| 20260504182718 | 23 | 262 | 1.6 | 9.7 | 0.00 | 0.00 | 0.00 | 52 | 1009.4 |
| 20260504182215 | 23 | 180 | 6.4 | 11.3 | 0.00 | 0.00 | 0.00 | 54 | 1009.4 |
| 20260504181712 | 23 | 180 | 1.6 | 4.8 | 0.00 | 0.00 | 0.00 | 60 | 1009.5 |
| 20260504181210 | 23 | 282 | 0.0 | 6.4 | 0.00 | 0.00 | 0.00 | 57 | 1009.6 |
| 20260504180708 | 23 | 57 | 3.2 | 4.8 | 0.00 | 0.00 | 0.00 | 56 | 1009.8 |
| 20260504180207 | 22 | 138 | 0.0 | 4.8 | 0.00 | 0.00 | 0.00 | 59 | 1009.7 |
| 20260504175704 | 22 | 208 | 1.6 | 14.5 | 0.00 | 0.00 | 0.00 | 58 | 1009.9 |
| 20260504175200 | 22 | 120 | 0.0 | 11.3 | 0.00 | 0.00 | 0.00 | 60 | 1009.9 |
| 20260504174658 | 22 | 190 | 6.4 | 6.4 | 0.00 | 0.00 | 0.00 | 59 | 1010.1 |
| 20260504174155 | 21 | 172 | 4.8 | 6.4 | 0.00 | 0.00 | 0.00 | 63 | 1010.2 |
| 20260504173652 | 21 | 165 | 3.2 | 6.4 | 0.00 | 0.00 | 0.00 | 64 | 1010.3 |
| 20260504173149 | 20 | 51 | 0.0 | 1.6 | 0.00 | 0.00 | 0.00 | 67 | 1010.6 |
| 20260504172646 | 20 | 104 | 1.6 | 3.2 | 0.00 | 0.00 | 0.00 | 65 | 1010.6 |
| 20260504172142 | 20 | 121 | 0.0 | 1.6 | 0.00 | 0.00 | 0.00 | 65 | 1010.7 |
| 20260504171639 | 20 | 146 | 1.6 | 1.6 | 0.00 | 0.00 | 0.00 | 64 | 1010.8 |
| 20260504171136 | 20 | 122 | 0.0 | 3.2 | 0.00 | 0.00 | 0.00 | 67 | 1011.1 |
| 20260504170632 | 20 | 67 | 0.0 | 1.6 | 0.00 | 0.00 | 0.00 | 65 | 1011.2 |
| 20260504170130 | 20 | 136 | 1.6 | 3.2 | 0.00 | 0.00 | 0.00 | 64 | 1011.4 |
| 20260504151009 | 21 | 165 | 4.8 | 9.7 | 0.00 | 0.00 | 0.00 | 60 | 1011.8 |
| 20260504150507 | 21 | 177 | 4.8 | 11.3 | 0.00 | 0.00 | 0.00 | 63 | 1011.9 |
| 20260504140933 | 20 | 131 | 0.0 | 1.6 | 0.00 | 0.00 | 0.00 | 69 | 1012.2 |
| 20260504140429 | 19 | 125 | 3.2 | 6.4 | 0.00 | 0.00 | 0.00 | 67 | 1012.4 |
| 20260504130354 | 16 | 123 | 1.6 | 4.8 | 0.00 | 0.00 | 0.00 | 77 | 1013.1 |